Preview of NWS' New Version of Forecast
This preview is not operational and should not be used for support decisions.

Regional Weather Roundup (RWR)

Issued by National Weather Service (NWS)

                            
000
ASUS42 KTBW 232217
RWRFL 
FLORIDA REGIONAL WEATHER ROUNDUP
NATIONAL WEATHER SERVICE TAMPA BAY RUSKIN FL
600 PM EDT THU MAY 23 2019

NOTE: "FAIR" INDICATES FEW OR NO CLOUDS BELOW 12,000 FEET WITH NO
SIGNIFICANT WEATHER AND/OR OBSTRUCTIONS TO VISIBILITY.

FLZ001>010-012>015-112-114-115-232300-
PANHANDLE FLORIDA
  
CITY           SKY/WX    TMP DP  RH WIND       PRES   REMARKS
PENSACOLA      FAIR      85  75  72 S12       30.11F                  
PENSACOLA NAS  FAIR      83  75  77 SE9       30.11F                  
MILTON NAS     FAIR      82  76  81 W3        30.11F                  
CRESTVIEW      FAIR      94  62  34 VRB6      30.12F                  
DUKE FIELD     FAIR      88  69  53 S13       30.11S                  
VALPARAISO     FAIR      84  71  64 S9        30.12F                  
MARY ESTHER    FAIR      83  71  65 S8        30.11F                  
PANAMA CITY    FAIR      85  70  60 S15       30.12S                  
TYNDALL AFB    FAIR      88  65  45 S18       30.10F                  
APALACHICOLA   FAIR      84  68  58 SE9       30.12F                  

STATION/POSITION SKY/WX   TEMP    WIND        PRES    WAVE   SWELL
                          AIR SEA DIR/SP/G            HT/PER HT/PER
                          (F)     (DEG/KT/KT) (MB)    (FT/S) (FT/S)
30.1N   87.6W                                   N/A     3/ 6
29.2N   88.2W                      90/ 12/ 16 1020.1F   4/ 6   3/ 6
PANAMA CITY BEAC           80 84  170/ 15/ 16 1020.6F
TOWER C          NOT AVBL

$$
FLZ011-016>038-118-127-128-134-139-239-232300-
NORTH FLORIDA
  
CITY           SKY/WX    TMP DP  RH WIND       PRES   REMARKS
MARIANNA       FAIR      93  63  36 E6        30.11F                  
TALLAHASSEE    FAIR      93  65  39 E14       30.11F HX  95           
PERRY          FAIR      93  65  39 E12G18    30.12S HX  95           
LIVE OAK       PTSUNNY   91  64  40 NE9G15    30.12F                  
CROSS CITY     FAIR      92  64  39 E7        30.11S                  
LAKE CITY      FAIR      88  63  42 E12G17    30.15S                  
GAINESVILLE    FAIR      89  64  43 E15       30.18R                  
WILLISTON      FAIR      88  65  46 E10       30.13S                  
PALATKA        FAIR      86  66  51 E15G21    30.18S                  
MAYPORT NAS    FAIR      83  67  58 E12       30.19F                  
JACKSONVILLE   FAIR      83  62  49 E17       30.18F                  
JAX NAS        FAIR      85  64  49 E13       30.18F                  
JAX CECIL      MOSUNNY   86  64  48 E15       30.17F                  
FERNANDINA BEA FAIR      81  68  64 E13       30.20S                  
ST AUGUSTINE   FAIR      81  68  64 E14       30.20F                  
PALM COAST     MOSUNNY   81  66  61 NE12      30.18F                  

STATION/POSITION SKY/WX   TEMP    WIND        PRES    WAVE   SWELL
                          AIR SEA DIR/SP/G            HT/PER HT/PER
                          (F)     (DEG/KT/KT) (MB)    (FT/S) (FT/S)
SHELL POINT      NOT AVBL
KEATON BEACH               84     270/  8/ 10 1019.8F
CEDAR KEY                  84     290/ 10/ 12 1019.6F
FERNANDINA                 85 84   80/  6/ 13 1023.3F
30.7N   81.3W                 80                N/A     3/ 7
MAYPORT                    80 82   80/ 10/ 15 1022.6F
31.4N   80.9W              78 79  120/ 10/ 10 1022.9F   3/ 6   2/ 6
ST AUGUSTINE               79 82   80/ 12/ 13 1022.4F

$$
FLZ040-043>046-052-053-057-058-063-144-232300-
INTERIOR CENTRAL FLORIDA
  
CITY           SKY/WX    TMP DP  RH WIND       PRES   REMARKS
OCALA          FAIR      87  65  47 E14G22    30.15R                  
LEESBURG       FAIR      85  63  47 E15       30.16R                  
SANFORD        FAIR      84  64  50 E15       30.16S                  
ORLANDO EXEC   FAIR      83  64  52 NE16      30.15S                  
ORLANDO INTL   FAIR      84  63  49 E17G24    30.14F                  
KISSIMMEE      FAIR      84  64  50 E17       30.15S                  
WINTER HAVEN   FAIR      87  64  46 NE17G26   30.13S                  
LAKELAND       MOSUNNY   88  66  48 E13       30.11S                  
BARTOW         FAIR      88  64  45 NE17      30.11S                  
SEBRING        FAIR      86  64  47 NE21      30.12R                  
OKEECHOBEE     FAIR      82  61  47 E12G17    30.11S                  

$$
FLZ041-047-054-059-064-141-147-232300-
EAST CENTRAL FLORIDA
  
CITY           SKY/WX    TMP DP  RH WIND       PRES   REMARKS
ORMOND BEACH   MOSUNNY   81  66  61 E12G18    30.18                   
DAYTONA BEACH  FAIR      82  68  62 E17       30.17F                  
DELAND         FAIR      81  66  61 NE15      30.17S                  
NEW SMYRNA BEA MOSUNNY   82  66  57 E14       30.19S                  
TITUSVILLE     MOSUNNY   84  64  51 E17       30.16F                  
CAPE CANAVERAL FAIR      81  58  44 E14       30.14F                  
PATRICK AFB    FAIR      82  69  64 E18       30.14F                  
MELBOURNE      FAIR      83  66  56 NE18      30.14S                  
VERO BEACH     CLOUDY    82  68  62 NE17      30.13F                  
FT PIERCE      PTSUNNY   81  66  60 E15G22    30.12F                  
STUART         PTSUNNY   82  66  57 E17G25    30.13F                  

STATION/POSITION SKY/WX   TEMP    WIND        PRES    WAVE   SWELL
                          AIR SEA DIR/SP/G            HT/PER HT/PER
                          (F)     (DEG/KT/KT) (MB)    (FT/S) (FT/S)
28.5N   80.2W              79      70/ 16/ 19 1021.4
28.9N   78.5W              77 79   60/ 16/ 19 1022.1F   4/ 7   3/ 7
TRIDENT PIER               79 82   60/ 11/ 17 1022.5F
28.4N   80.5W                 80                N/A     3/ 6
27.5N   80.2W                 79                N/A     4/ 5

$$
FLZ050-056-061-142-242-148-248-149-249-151-251-155-255-
160-260-232300-
WEST CENTRAL FLORIDA
  
CITY           SKY/WX    TMP DP  RH WIND       PRES   REMARKS
CRYSTAL RIVER  FAIR     N/A N/A N/A E16G22    30.11S                  
INVERNESS      PTSUNNY   86  68  54 E12       30.13S                  
BROOKSVILLE    FAIR      90  66  45 E15       30.10S                  
CLEARWATER AIR FAIR      90  63  40 E8        30.07F                  
ST PETE CLEARW FAIR      91  67  44 E10       30.07F                  
TAMPA INTL     PTSUNNY   91  66  43 NE21      30.09S                  
TAMPA EXEC     FAIR      88  66  48 E9        30.10R                  
PLANT CITY     FAIR      90  64  43 E12G17    30.12S                  
MACDILL AFB    FAIR      90  67  45 E12       30.07F                  
PETER O KNIGHT CLOUDY    90  68  48 E18       30.08S                  
ST PETERSBURG  FAIR      86  70  58 E17       30.06F                  
SARASOTA       FAIR      92  62  36 E13       30.04F                  
VENICE         FAIR      95  64  36 NE16      30.05F HX  97           

STATION/POSITION SKY/WX   TEMP    WIND        PRES    WAVE   SWELL
                          AIR SEA DIR/SP/G            HT/PER HT/PER
                          (F)     (DEG/KT/KT) (MB)    (FT/S) (FT/S)
27.3N   84.2W                 80                N/A     3/ 6
CLEARWATER BEACH           83 86  310/ 13/ 16 1018.8F
MIDDLE TAMPA BAY           88      90/ 13/ 16 1018.4F
VENICE                     90 83   80/ 14/ 17 1017.5F

$$
FLZ066-069-070-075>078-162-262-165-265-232300-
SOUTHWEST FLORIDA AND KEYS
  
CITY           SKY/WX    TMP DP  RH WIND       PRES   REMARKS
PUNTA GORDA    PTSUNNY   89  67  47 NE20      30.08S                  
FT MYERS       FAIR      87  69  54 E15       30.05S                  
SOUTHWEST INTL FAIR      89  68  49 E20       30.06S                  
NAPLES         FAIR      89  66  46 E17       30.04F                  
MARCO ISLAND   FAIR      90  67  46 E12       30.06S                  
IMMOKALEE      PTSUNNY   88  70  55 E15G22    30.05S                  
MARATHON       FAIR      88  67  49 E17G25    30.04F                  
KEY WEST NAS   FAIR      86  70  58 E21G29    30.03F                  
KEY WEST INTL  FAIR      84  72  67 E18G25    30.04S                  

STATION/POSITION SKY/WX   TEMP    WIND        PRES    WAVE   SWELL
                          AIR SEA DIR/SP/G            HT/PER HT/PER
                          (F)     (DEG/KT/KT) (MB)    (FT/S) (FT/S)
NAPLES                     90 85              1017.5F
DRY TORTUGAS               82      90/ 17/ 18 1017.1F
SAND KEY                   81                 1016.8F
SOMBRERO KEY               81                 1016.6F

$$
FLZ067-068-071>074-168-172>174-232300-
SOUTHEAST FLORIDA 
  
CITY           SKY/WX    TMP DP  RH WIND       PRES   REMARKS
W PALM BEACH   FAIR      84  66  54 E16G25    30.10F                  
BOCA RATON     MOSUNNY   86  70  58 NE17G23   30.10S                  
FT LAUDER-EXEC FAIR      83  67  58 E21G26    30.08S                  
FT LAUDERDALE  FAIR      83  68  60 NE17G24   30.07S                  
POMPANO BEACH  FAIR      84  67  56 NE17G26   30.08F                  
PEMBROKE PINES FAIR      83  67  58 NE21      30.09S                  
OPA LOCKA      FAIR      83  68  60 NE18      30.08S                  
MIAMI          PTSUNNY   84  69  60 NE16G25   30.07S                  
WEST KENDALL   LGT RAIN  83  70  64 E17G26    30.05F                  
HOMESTEAD      CLOUDY    81  73  78 NE16G22   30.05F                  

STATION/POSITION SKY/WX   TEMP    WIND        PRES    WAVE   SWELL
                          AIR SEA DIR/SP/G            HT/PER HT/PER
                          (F)     (DEG/KT/KT) (MB)    (FT/S) (FT/S)
PORT EVERGLADES            81      50/ 15/ 21 1018.6F
VIRGINIA KEY               81 85   40/ 16/ 21 1017.7F
LAKE WORTH                 79 83              1020.2F
SETTLEMENT POINT           78      60/ 20/ 22 1019.5F

$$